DW6267 Weather Reports


Display with metric or nautical units.
time (UTC)temp
F
wind
direction
speed
MPH
gust
MPH
rain 1hr
in
rain 24hr
in
rain mn
in
humidity
%
barometer
mb
20260831020345 58 296 4.0 0.0 0.00 0.00 0.00 60 1014.6
20260831010332 60 350 5.0 0.0 0.00 0.00 0.00 57 1014.8
20260831000348 63 328 7.0 0.0 0.00 0.00 0.00 51 1014.0
20260830230347 65 30 7.0 0.0 0.00 0.00 0.00 49 1014.0
20260830220349 65 316 4.0 0.0 0.00 0.00 0.00 48 1014.2
20260830210341 64 4 6.0 0.0 0.00 0.00 0.00 48 1014.6
20260830200407 63 360 6.0 0.0 0.00 0.00 0.00 47 1014.5
20260830190344 61 304 5.0 0.0 0.00 0.00 0.00 49 1015.1
20260830180334 59 331 5.0 0.0 0.00 0.00 0.00 51 1015.7
20260830170337 58 14 3.0 0.0 0.00 0.00 0.00 53 1015.0
20260830160345 55 17 1.0 0.0 0.00 0.00 0.00 56 1015.0
20260830150348 49 88 0.0 0.0 0.00 0.00 0.00 66 1015.7
20260830140339 51 33 0.0 0.0 0.00 0.00 0.00 63 1015.3
20260830130343 52 360 1.0 0.0 0.00 0.00 0.00 60 1015.5
20260830120333 50 316 1.0 0.0 0.00 0.00 0.00 65 1015.5
20260830110346 51 5 0.0 0.0 0.00 0.00 0.00 65 1015.3
20260830100403 51 355 3.0 0.0 0.00 0.00 0.00 61 1014.9
20260830090331 51 329 0.0 0.0 0.00 0.00 0.00 63 1015.5
20260830080340 51 5 1.0 0.0 0.00 0.00 0.00 60 1015.4
20260830070341 51 340 2.0 0.0 0.00 0.00 0.00 60 1015.3
20260830060348 50 291 0.0 0.0 0.00 0.00 0.01 62 1015.5
20260830050330 48 20 0.0 0.0 0.00 0.00 0.01 69 1015.3
20260830040345 52 325 0.0 0.0 0.00 0.00 0.01 58 1015.3
20260830030346 53 352 0.0 0.0 0.00 0.00 0.01 58 1014.9